Location: Christchurch
(43.5330°S, 172.6330°E)
Time: 14:55:57
(UTC+13:00)

CZ-4C R/B - Pass Details

Date: 24 January 2019
Orbit: 654 x 1348 km, 63.4° (Epoch: 12 October)

Event Time Altitude Azimuth Distance (km) Brightness Sun altitude
Rises 21:57:49 0° 216° (SW) 3,742 7.3 -9.0°
Reaches altitude 10° 22:01:25 10° 199° (SSW) 2,647 5.7 -9.5°
Maximum altitude 22:05:40 19° 154° (SSE) 1,907 4.2 -10.1°
Drops below altitude 10° 22:09:29 10° 108° (ESE) 2,335 4.2 -10.7°
Enters shadow 22:11:17 - 96° (E) 2,817 4.5 -10.9°
